#timestamp,LO_Frequency,Hit,StdDev 
1620273615.3,286046999.7,N
1620273635.1,286047002.8,N
1620273655.9,286047002.7,N
1620273675.7,286047002.0,N
1620273695.6,286047002.2,N
1620273715.4,286047001.5,N
1620273735.2,286047003.8,Y
1620273755.1,286047002.8,P
1620273756.0,286047002.8,P
1620273775.8,286047002.5,P
1620273795.7,286047002.2,Y
1620273815.5,286047000.9,P
1620273835.3,286046998.2,N
1620273855.2,286046998.8,N
1620273875.0,286046998.7,N
1620273875.9,286046998.7,N
1620273895.7,286046998.7,N
1620273915.6,286046998.8,N
1620273935.4,286046998.7,N
1620273955.3,286047001.1,N
1620273975.1,286047000.9,N
1620273976.0,286047000.9,N
1620273995.8,286046998.2,N
1620274015.7,286046998.9,N
1620274035.5,286046999.6,N
1620274055.4,286046996.6,N
1620274075.2,286046997.0,N
1620274095.0,286046999.1,N
1620274095.9,286046999.1,N
1620274115.8,286046999.2,N
1620274135.6,286046999.3,N
1620274155.4,286046999.5,N
1620274175.3,286046996.9,N
1620274195.1,286046999.0,N
1620274215.9,286046999.6,N
1620274235.7,286046998.9,N
1620274255.5,286046999.4,N
1620274275.4,286046999.4,N
1620274295.2,286046999.3,N
1620274315.1,286046998.7,N
1620274316.0,286046998.7,N
1620274335.8,286046999.1,N
1620274355.6,286046998.9,N
1620274375.5,286046998.8,N
1620274395.3,286046999.4,N
1620274415.1,286046998.9,N
1620274435.9,286046998.9,N
1620274455.7,286046996.5,Y
1620274475.6,286047001.2,P
1620274495.4,286046996.6,P
1620274515.2,286046999.1,N
1620274535.1,286046998.9,N
1620274536.0,286046998.9,N
1620274555.8,286046998.7,N
1620274575.7,286046998.4,N
1620274595.5,286046998.6,N
1620274615.3,286047001.1,N
1620274635.2,286047000.8,N
1620274655.0,286046998.4,N
1620274655.9,286046998.4,N
1620274675.8,286046998.7,N
1620274695.6,286046998.7,N
1620274715.4,286046999.4,N
1620274735.3,286046998.8,N
1620274755.1,286046998.8,N
1620274775.8,286046999.0,N
1620274795.7,286046999.2,N
1620274815.5,286046999.4,N
1620274835.4,286046999.6,N
1620274855.2,286046997.3,N
1620274875.0,286046997.2,N
1620274875.9,286046997.2,N
1620274895.8,286046994.9,Y
1620274915.6,286046996.7,P
1620274935.5,286046999.6,N
1620274955.3,286046998.8,N
1620274975.1,286046998.6,N
1620274995.9,286046998.7,N
1620275015.7,286046998.4,N
1620275035.6,286047001.1,N
1620275055.4,286046998.1,N
1620275075.2,286046998.4,N
1620275095.1,286046998.9,N
1620275096.0,286046998.9,N
1620275115.8,286046998.8,N
1620275135.6,286046998.3,N
1620275155.5,286046999.3,N
1620275175.3,286046999.1,N
1620275195.2,286046999.1,N
1620275215.9,286046999.1,N
1620275235.7,286046996.7,Y
1620275255.6,286046998.3,P
1620275275.4,286046998.7,P
1620275295.3,286046999.0,P
1620275315.1,286046998.2,Y
1620275316.0,286046998.2,P
1620275335.8,286047000.6,N
1620275355.7,286046998.2,N
1620275375.5,286046998.5,N
1620275395.3,286046998.6,N
1620275415.2,286047000.8,N
1620275435.0,286046998.1,N
1620275435.9,286046998.1,N
1620275455.8,286047001.2,N
1620275475.6,286047001.2,N
1620275495.4,286046998.8,N
1620275515.3,286047000.7,N
1620275535.1,286046998.3,N
1620275555.9,286047000.9,N
1620275575.7,286046999.9,N
1620275595.5,286047000.9,N
1620275615.4,286047001.1,N
1620275635.2,286047000.4,N
1620275655.0,286046999.7,N
1620275655.9,286046999.7,N
1620275675.8,286047000.4,N
1620275695.6,286047002.8,N
1620275715.5,286047000.2,N
1620275735.3,286047002.4,N
1620275755.1,286047002.1,N
1620275775.9,286047001.9,N
1620275795.7,286047001.6,N
1620275815.5,286047002.6,N
1620275835.4,286047001.8,N
1620275855.2,286047003.9,N
1620275875.1,286047003.6,N
1620275876.0,286047003.6,N
1620275895.8,286047003.6,N
1620275915.6,286047003.8,N
1620275935.5,286047004.0,N
1620275955.3,286047004.4,N
1620275975.1,286047002.1,N
1620275995.9,286047002.6,N
1620276015.7,286047000.1,N
1620276035.6,286047002.1,N
1620276055.4,286047002.2,N
1620276075.2,286047001.9,N
1620276095.1,286047002.3,N
1620276096.0,286047002.3,N
1620276115.8,286047004.4,Y
1620276135.7,286046998.1,P
1620276155.5,286046998.2,N
1620276175.3,286046998.2,N
1620276195.2,286047000.5,N
1620276215.0,286046998.2,N
1620276215.9,286046998.2,N
1620276235.7,286047000.5,N
1620276255.6,286047000.5,N
1620276275.4,286046999.9,N
1620276295.3,286047000.1,N
1620276315.1,286047002.8,N
1620276316.0,286047002.8,N
1620276335.8,286047000.4,N
1620276355.7,286047000.2,N
1620276375.5,286047002.2,N
1620276425.4,286047002.6,E
1620276435.3,286047001.0,N
1620276455.1,286046998.3,P
1620276475.9,286046997.0,N
1620276495.7,286046996.5,N
1620276515.6,286046997.1,N
1620276535.4,286046997.4,N
1620276555.2,286046996.9,N
1620276575.1,286046996.7,N
1620276576.0,286046996.7,N
1620276595.8,286046997.6,N
1620276615.6,286046997.5,N
1620276635.5,286046997.4,N
1620276655.3,286046997.7,N
1620276675.2,286046997.2,N
1620276695.9,286046997.1,N
1620276715.7,286046997.3,N
1620276735.6,286046997.5,N
1620276755.4,286046994.9,Y
1620276775.2,286047001.0,P
1620276795.1,286046998.8,N
1620276796.0,286046998.8,N
1620276815.8,286046999.0,N
1620276835.7,286046998.3,N
1620276855.5,286046999.3,N
1620276875.3,286046998.5,N
1620276895.2,286046998.2,N
1620276915.0,286046998.7,N
1620276915.9,286046998.7,N
1620276935.8,286046999.1,N
1620276955.6,286046999.0,N
1620276975.4,286046998.8,N
1620276995.3,286046998.7,N
1620277015.1,286046996.9,Y
1620277035.8,286046999.0,P
1620277055.7,286047000.8,P
1620277075.5,286047000.0,N
1620277125.4,286046998.8,E
1620277135.3,286047000.9,N
1620277155.1,286047000.6,P
1620277175.9,286046998.1,P
1620277195.7,286046998.1,N
